DW0126 Weather Reports


time (UTC)temp
C
wind
direction
speed
KPH
gust
KPH
rain 1hr
cm
rain 24hr
cm
rain mn
cm
humidity
%
barometer
mb
20260507025216 12 248 3.2 8.0 0.00 0.00 0.00 80 1020.1
20260507024216 12 248 6.4 11.3 0.00 0.00 0.00 80 1020.1
20260507023216 12 248 6.4 11.3 0.00 0.00 0.00 80 1020.0
20260507022216 13 248 11.3 16.1 0.00 0.00 0.00 79 1020.0
20260507021216 13 248 4.8 8.0 0.00 0.00 0.00 79 1020.0
20260507020216 13 225 9.7 16.1 0.00 0.00 0.00 79 1020.0
20260507015216 13 270 8.0 14.5 0.00 0.00 0.00 78 1020.0
20260507014216 13 248 4.8 8.0 0.00 0.00 0.00 78 1020.0
20260507013216 13 248 9.7 12.9 0.00 0.00 0.00 77 1020.0
20260507012236 13 293 6.4 9.7 0.00 0.00 0.00 77 1020.1
20260507011216 13 248 9.7 16.1 0.00 0.00 0.00 76 1020.0
20260507010216 13 293 6.4 12.9 0.00 0.00 0.00 76 1020.0
20260507005216 14 293 6.4 11.3 0.00 0.00 0.00 75 1020.0
20260507004216 14 248 11.3 17.7 0.00 0.00 0.00 75 1020.1
20260507003216 14 248 8.0 12.9 0.00 0.00 0.00 74 1020.1
20260507002236 15 225 8.0 14.5 0.00 0.00 0.00 73 1020.1
20260507001216 15 225 11.3 16.1 0.00 0.00 0.00 72 1020.1
20260507000219 15 203 9.7 16.1 0.00 0.00 0.00 73 1020.2
20260506235216 15 248 8.0 12.9 0.00 0.00 0.00 74 1020.3
20260506234216 15 270 11.3 14.5 0.00 0.00 0.00 73 1020.3
20260506233216 15 248 12.9 19.3 0.00 0.00 0.00 72 1020.2
20260506232216 15 248 9.7 16.1 0.00 0.00 0.00 73 1020.2
20260506231216 15 270 11.3 24.1 0.00 0.00 0.00 72 1020.3
20260506230216 15 225 8.0 14.5 0.00 0.00 0.00 71 1020.1
20260506225236 15 248 6.4 12.9 0.00 0.00 0.00 71 1020.1
20260506224216 15 225 6.4 12.9 0.00 0.00 0.00 72 1020.2
20260506223236 15 248 12.9 20.9 0.00 0.00 0.00 72 1020.3
20260506222216 15 248 6.4 9.7 0.00 0.00 0.00 72 1020.3
20260506221216 15 248 12.9 25.7 0.00 0.00 0.00 72 1020.6
20260506220216 15 270 9.7 14.5 0.00 0.00 0.00 73 1020.5
20260506215216 15 248 11.3 16.1 0.00 0.00 0.00 72 1020.5
20260506214216 15 248 9.7 16.1 0.00 0.00 0.00 72 1020.5
20260506213216 15 293 9.7 16.1 0.00 0.00 0.00 72 1020.6
20260506212216 15 248 11.3 16.1 0.00 0.00 0.00 71 1020.5
20260506211236 15 248 9.7 14.5 0.00 0.00 0.00 72 1020.5
20260506210216 15 248 6.4 12.9 0.00 0.00 0.00 73 1020.4
20260506205216 15 293 8.0 19.3 0.00 0.00 0.00 73 1020.5
20260506204216 15 225 8.0 11.3 0.00 0.00 0.00 74 1020.4
20260506203216 15 225 6.4 12.9 0.00 0.00 0.00 73 1020.3
20260506202236 15 270 4.8 11.3 0.00 0.00 0.00 74 1020.3
20260506201216 15 225 4.8 9.7 0.00 0.00 0.00 75 1020.3
20260506200236 14 225 3.2 6.4 0.00 0.00 0.00 75 1020.3
20260506195216 14 248 4.8 6.4 0.00 0.00 0.00 76 1020.2
20260506194216 14 248 6.4 9.7 0.00 0.00 0.00 76 1020.2
20260506193216 13 248 9.7 14.5 0.00 0.00 0.00 77 1020.2
20260506192216 13 248 4.8 9.7 0.00 0.00 0.00 77 1020.0
20260506191216 13 248 6.4 9.7 0.00 0.00 0.00 78 1020.1
20260506190216 13 248 6.4 12.9 0.00 0.00 0.00 78 1020.0
20260506185216 13 248 8.0 12.9 0.00 0.00 0.00 78 1020.2
20260506184216 13 248 4.8 8.0 0.00 0.00 0.00 79 1020.1
20260506183216 13 248 6.4 11.3 0.00 0.00 0.00 81 1020.1
20260506182216 13 225 4.8 6.4 0.00 0.00 0.00 82 1019.8
20260506181216 12 225 6.4 8.0 0.00 0.00 0.00 82 1019.7
20260506180216 12 248 6.4 8.0 0.00 0.00 0.00 82 1019.9
20260506175216 12 225 6.4 9.7 0.00 0.00 0.00 84 1019.9
20260506174216 12 248 6.4 11.3 0.00 0.00 0.00 84 1019.7
20260506173216 12 225 4.8 11.3 0.00 0.00 0.00 85 1019.7
20260506172216 12 225 6.4 9.7 0.00 0.00 0.00 86 1019.9
20260506171216 12 248 8.0 12.9 0.00 0.00 0.00 88 1019.9
20260506170216 12 225 6.4 11.3 0.00 0.00 0.00 89 1019.8
20260506165236 12 225 6.4 9.7 0.00 0.00 0.00 90 1019.7
20260506164216 11 225 6.4 11.3 0.00 0.00 0.00 91 1019.8
20260506163216 11 248 4.8 8.0 0.00 0.00 0.00 91 1019.6
20260506162216 11 225 6.4 11.3 0.00 0.00 0.00 92 1019.5
20260506161216 11 0.0 1.6 0.00 0.00 0.00 92 1019.4
20260506160216 11 248 6.4 9.7 0.00 0.00 0.00 93 1019.3
20260506155216 11 225 4.8 8.0 0.00 0.00 0.00 93 1019.3
20260506154216 11 225 4.8 11.3 0.00 0.00 0.00 93 1019.2
20260506153216 11 225 3.2 4.8 0.00 0.00 0.00 94 1019.4
20260506152216 11 248 4.8 8.0 0.00 0.00 0.00 94 1019.4
20260506151216 11 225 1.6 4.8 0.00 0.00 0.00 94 1019.4
20260506150216 11 248 4.8 8.0 0.00 0.00 0.00 94 1019.3
20260506145216 11 248 4.8 8.0 0.00 0.00 0.00 94 1019.4
20260506144216 10 248 3.2 6.4 0.00 0.00 0.00 94 1019.4
20260506143216 10 225 4.8 8.0 0.00 0.00 0.00 93 1019.3
20260506142216 10 248 3.2 4.8 0.00 0.00 0.00 93 1018.9
20260506141216 10 248 3.2 6.4 0.00 0.00 0.00 93 1019.1
20260506140216 10 225 3.2 6.4 0.00 0.00 0.00 93 1019.0
20260506135216 10 0.0 0.0 0.00 0.00 0.00 93 1019.2
20260506134216 10 0.0 0.0 0.00 0.00 0.00 93 1019.1
20260506133216 10 0.0 0.0 0.00 0.00 0.00 93 1019.1
20260506132236 10 225 4.8 8.0 0.00 0.00 0.00 93 1019.0
20260506131216 10 225 4.8 6.4 0.00 0.00 0.00 93 1019.0
20260506130216 11 225 4.8 8.0 0.00 0.00 0.00 93 1018.8
20260506125216 11 248 1.6 6.4 0.00 0.00 0.00 93 1018.6
20260506124216 11 225 4.8 9.7 0.00 0.00 0.00 93 1018.7
20260506123216 11 248 6.4 8.0 0.00 0.00 0.00 93 1018.6
20260506122216 11 225 3.2 4.8 0.00 0.00 0.00 93 1018.5
20260506121236 11 225 3.2 4.8 0.00 0.00 0.00 92 1018.5
20260506120216 11 225 3.2 6.4 0.00 0.00 0.00 92 1018.4
20260506115236 11 248 3.2 4.8 0.00 0.00 0.00 92 1018.3
20260506114216 11 270 3.2 4.8 0.00 0.00 0.00 92 1018.1
20260506113216 11 225 1.6 3.2 0.00 0.00 0.00 91 1018.1
20260506112216 11 158 3.2 6.4 0.00 0.00 0.00 91 1018.2
20260506111216 11 225 4.8 6.4 0.00 0.00 0.00 91 1018.1
20260506110216 11 225 4.8 8.0 0.00 0.00 0.00 91 1018.1
20260506105216 11 0.0 0.0 0.00 0.00 0.00 90 1018.0
20260506104216 11 225 4.8 6.4 0.00 0.00 0.00 90 1017.9
20260506103216 11 248 4.8 6.4 0.00 0.00 0.00 89 1017.8
20260506102216 11 248 1.6 4.8 0.00 0.00 0.00 89 1017.8
20260506101236 11 248 4.8 8.0 0.00 0.00 0.00 88 1017.7
20260506100216 11 248 4.8 8.0 0.00 0.00 0.00 88 1017.6
20260506095216 11 225 4.8 14.5 0.00 0.00 0.00 88 1017.6
20260506094216 11 248 3.2 4.8 0.00 0.00 0.00 87 1017.5
20260506093216 11 225 3.2 4.8 0.00 0.00 0.00 87 1017.4
20260506092216 11 248 4.8 8.0 0.00 0.00 0.00 87 1017.5
20260506091216 11 248 6.4 8.0 0.00 0.00 0.00 87 1017.5
20260506090236 11 203 4.8 8.0 0.00 0.00 0.00 87 1017.5
20260506085216 12 225 4.8 6.4 0.00 0.00 0.00 87 1017.3
20260506084216 12 248 4.8 6.4 0.00 0.00 0.00 87 1017.2
20260506083216 12 225 8.0 11.3 0.00 0.00 0.00 87 1017.1
20260506082216 12 248 4.8 8.0 0.00 0.00 0.00 87 1017.0
20260506081216 12 248 3.2 6.4 0.00 0.00 0.00 88 1016.9
20260506080216 12 248 4.8 9.7 0.00 0.00 0.00 88 1016.9
20260506073216 11 0.0 0.0 0.00 0.00 0.00 90 1016.5
20260506072215 11 225 1.6 3.2 0.00 0.00 0.00 90 1016.5
20260506071236 11 248 3.2 6.4 0.00 0.00 0.00 90 1016.4
20260506070216 11 0.0 0.0 0.00 0.00 0.00 90 1016.3
20260506062236 11 0.0 0.0 0.00 0.00 0.00 89 1016.1
20260506061216 11 0.0 0.0 0.00 0.00 0.00 88 1016.0
20260506060216 11 0.0 0.0 0.00 0.00 0.00 88 1015.9
20260506051217 12 0.0 0.0 0.00 0.00 0.00 86 1015.7
20260506050216 12 203 1.6 1.6 0.00 0.00 0.00 86 1015.7
20260506044237 12 225 1.6 3.2 0.00 0.00 0.00 84 1015.6
20260506043217 13 0.0 0.0 0.00 0.00 0.00 84 1015.6
20260506042217 13 0.0 0.0 0.00 0.00 0.00 84 1015.5
20260506041216 13 0.0 0.0 0.00 0.00 0.00 83 1015.4
20260506040216 13 0.0 0.0 0.00 0.00 0.00 83 1015.3
20260506035216 14 0.0 0.0 0.00 0.00 0.00 82 1015.1
20260506034216 14 0.0 0.0 0.00 0.00 0.00 80 1015.0
20260506033216 15 203 3.2 6.4 0.00 0.00 0.00 79 1015.0
20260506032216 15 225 3.2 6.4 0.00 0.00 0.00 78 1014.9
20260506031216 15 0.0 0.0 0.00 0.00 0.00 77 1014.8
20260506030216 16 225 4.8 8.0 0.00 0.00 0.00 76 1014.7